Time,TemperatureF,DewpointF,PressureIn,WindDirection,WindDirectionDegrees,WindSpeedMPH,WindSpeedGustMPH,Humidity,HourlyPrecipIn,Conditions,Clouds,dailyrainin,SoftwareType,DateUTC
2013-11-08 00:10:00,44.9,36.0,30.30,WNW,286,0.0,-999.0,71,-99.99,,,0.00,weatherlink.com 1.10,2013-11-08 06:10:00,
2013-11-08 00:25:00,45.1,36.0,30.29,WNW,286,0.0,-999.0,71,-99.99,,,0.00,weatherlink.com 1.10,2013-11-08 06:25:00,
2013-11-08 00:40:00,45.1,36.0,30.29,WNW,286,0.0,-999.0,71,-99.99,,,0.00,weatherlink.com 1.10,2013-11-08 06:40:00,
2013-11-08 00:55:00,45.1,36.0,30.29,WNW,286,0.0,-999.0,70,-99.99,,,0.00,weatherlink.com 1.10,2013-11-08 06:55:00,
2013-11-08 01:10:00,44.6,36.0,30.29,WNW,286,0.0,-999.0,71,-99.99,,,0.00,weatherlink.com 1.10,2013-11-08 07:10:00,
2013-11-08 01:25:00,44.1,36.0,30.29,WNW,286,0.0,-999.0,72,-99.99,,,0.00,weatherlink.com 1.10,2013-11-08 07:25:00,
2013-11-08 01:40:00,43.6,36.0,30.29,WNW,286,0.0,-999.0,74,-99.99,,,0.00,weatherlink.com 1.10,2013-11-08 07:40:00,
2013-11-08 01:55:00,44.1,37.0,30.29,WNW,286,0.0,-999.0,75,-99.99,,,0.00,weatherlink.com 1.10,2013-11-08 07:55:00,
2013-11-08 02:10:00,44.2,36.0,30.29,WNW,286,0.0,-999.0,74,-99.99,,,0.00,weatherlink.com 1.10,2013-11-08 08:10:00,
2013-11-08 02:25:00,43.9,36.0,30.28,WNW,286,0.0,-999.0,74,-99.99,,,0.00,weatherlink.com 1.10,2013-11-08 08:25:00,
2013-11-08 02:40:00,43.5,36.0,30.27,WNW,286,0.0,-999.0,75,-99.99,,,0.00,weatherlink.com 1.10,2013-11-08 08:40:00,
2013-11-08 02:55:00,43.9,36.0,30.27,WNW,286,0.0,-999.0,75,-99.99,,,0.00,weatherlink.com 1.10,2013-11-08 08:55:00,
2013-11-08 03:10:00,43.9,36.0,30.27,WNW,286,0.0,-999.0,75,-99.99,,,0.00,weatherlink.com 1.10,2013-11-08 09:10:00,
2013-11-08 03:25:00,43.8,36.0,30.27,WNW,286,0.0,-999.0,74,-99.99,,,0.00,weatherlink.com 1.10,2013-11-08 09:25:00,
2013-11-08 03:40:00,44.1,36.0,30.26,WNW,286,0.0,-999.0,74,-99.99,,,0.00,weatherlink.com 1.10,2013-11-08 09:40:00,
2013-11-08 03:55:00,43.6,36.0,30.26,WNW,286,0.0,-999.0,74,-99.99,,,0.00,weatherlink.com 1.10,2013-11-08 09:55:00,
2013-11-08 04:10:00,43.5,36.0,30.26,WNW,286,0.0,-999.0,74,-99.99,,,0.00,weatherlink.com 1.10,2013-11-08 10:10:00,
2013-11-08 04:25:00,43.2,35.0,30.26,WNW,286,0.0,-999.0,74,-99.99,,,0.00,weatherlink.com 1.10,2013-11-08 10:25:00,
2013-11-08 04:40:00,43.2,35.0,30.26,WNW,286,0.0,-999.0,74,-99.99,,,0.00,weatherlink.com 1.10,2013-11-08 10:40:00,
2013-11-08 04:55:00,42.9,35.0,30.25,WNW,285,0.0,-999.0,74,-99.99,,,0.00,weatherlink.com 1.10,2013-11-08 10:55:00,
2013-11-08 05:10:00,42.3,35.0,30.25,WNW,284,0.0,-999.0,75,-99.99,,,0.00,weatherlink.com 1.10,2013-11-08 11:10:00,
2013-11-08 05:25:00,42.1,35.0,30.25,WNW,284,2.0,-999.0,76,-99.99,,,0.00,weatherlink.com 1.10,2013-11-08 11:25:00,
2013-11-08 05:40:00,42.3,35.0,30.26,West,262,3.0,-999.0,76,-99.99,,,0.00,weatherlink.com 1.10,2013-11-08 11:40:00,
2013-11-08 05:55:00,42.2,35.0,30.25,West,262,2.0,-999.0,76,-99.99,,,0.00,weatherlink.com 1.10,2013-11-08 11:55:00,
2013-11-08 06:10:00,42.1,35.0,30.25,West,262,0.0,-999.0,76,-99.99,,,0.00,weatherlink.com 1.10,2013-11-08 12:10:00,
2013-11-08 06:25:00,41.8,35.0,30.26,West,262,4.0,-999.0,77,-99.99,,,0.00,weatherlink.com 1.10,2013-11-08 12:25:00,
2013-11-08 06:40:00,41.5,35.0,30.26,West,262,0.0,-999.0,77,-99.99,,,0.00,weatherlink.com 1.10,2013-11-08 12:40:00,
2013-11-08 06:55:00,41.2,35.0,30.25,West,262,0.0,-999.0,78,-99.99,,,0.00,weatherlink.com 1.10,2013-11-08 12:55:00,
2013-11-08 07:10:00,41.3,35.0,30.25,West,262,1.0,-999.0,78,-99.99,,,0.00,weatherlink.com 1.10,2013-11-08 13:10:00,
2013-11-08 07:25:00,41.6,35.0,30.25,West,262,2.0,-999.0,78,-99.99,,,0.00,weatherlink.com 1.10,2013-11-08 13:25:00,
2013-11-08 07:40:00,42.2,35.0,30.25,SW,235,2.0,-999.0,77,-99.99,,,0.00,weatherlink.com 1.10,2013-11-08 13:40:00,
2013-11-08 07:55:00,43.2,36.0,30.25,SSW,206,7.0,-999.0,76,-99.99,,,0.00,weatherlink.com 1.10,2013-11-08 13:55:00,
2013-11-08 08:10:00,44.5,37.0,30.25,SSW,202,0.0,-999.0,74,-99.99,,,0.00,weatherlink.com 1.10,2013-11-08 14:10:00,
2013-11-08 08:25:00,47.1,37.0,30.24,South,174,4.0,-999.0,69,-99.99,,,0.00,weatherlink.com 1.10,2013-11-08 14:25:00,
2013-11-08 08:40:00,49.4,38.0,30.23,South,173,5.0,-999.0,64,-99.99,,,0.00,weatherlink.com 1.10,2013-11-08 14:40:00,
2013-11-08 08:55:00,52.3,37.0,30.23,South,188,4.0,-999.0,57,-99.99,,,0.00,weatherlink.com 1.10,2013-11-08 14:55:00,
2013-11-08 09:10:00,54.4,37.0,30.23,SSE,162,5.0,-999.0,53,-99.99,,,0.00,weatherlink.com 1.10,2013-11-08 15:10:00,
2013-11-08 09:25:00,55.9,36.0,30.23,SSW,207,4.0,-999.0,48,-99.99,,,0.00,weatherlink.com 1.10,2013-11-08 15:25:00,
2013-11-08 09:40:00,56.3,36.0,30.23,South,180,5.0,-999.0,47,-99.99,,,0.00,weatherlink.com 1.10,2013-11-08 15:40:00,
2013-11-08 09:55:00,57.3,36.0,30.23,South,182,14.0,-999.0,45,-99.99,,,0.00,weatherlink.com 1.10,2013-11-08 15:55:00,
2013-11-08 10:10:00,58.4,36.0,30.22,South,190,5.0,-999.0,43,-99.99,,,0.00,weatherlink.com 1.10,2013-11-08 16:10:00,
2013-11-08 10:25:00,59.5,36.0,30.21,SSW,193,11.0,-999.0,41,-99.99,,,0.00,weatherlink.com 1.10,2013-11-08 16:25:00,
2013-11-08 10:40:00,60.4,36.0,30.21,South,180,15.0,-999.0,40,-99.99,,,0.00,weatherlink.com 1.10,2013-11-08 16:40:00,
2013-11-08 10:55:00,61.2,35.0,30.20,WSW,250,16.0,-999.0,38,-99.99,,,0.00,weatherlink.com 1.10,2013-11-08 16:55:00,
2013-11-08 11:10:00,62.6,36.0,30.19,SSW,212,11.0,-999.0,37,-99.99,,,0.00,weatherlink.com 1.10,2013-11-08 17:10:00,
2013-11-08 11:25:00,62.1,36.0,30.19,South,183,17.0,-999.0,38,-99.99,,,0.00,weatherlink.com 1.10,2013-11-08 17:25:00,
2013-11-08 11:40:00,63.9,34.0,30.18,South,173,22.0,-999.0,33,-99.99,,,0.00,weatherlink.com 1.10,2013-11-08 17:40:00,
2013-11-08 11:55:00,64.5,33.0,30.16,SSE,164,9.0,-999.0,31,-99.99,,,0.00,weatherlink.com 1.10,2013-11-08 17:55:00,
2013-11-08 12:10:00,65.5,31.0,30.14,South,187,10.0,-999.0,28,-99.99,,,0.00,weatherlink.com 1.10,2013-11-08 18:10:00,
2013-11-08 12:25:00,66.0,31.0,30.13,SSW,194,16.0,-999.0,27,-99.99,,,0.00,weatherlink.com 1.10,2013-11-08 18:25:00,
2013-11-08 12:40:00,65.6,30.0,30.13,SSW,209,14.0,-999.0,26,-99.99,,,0.00,weatherlink.com 1.10,2013-11-08 18:40:00,
2013-11-08 12:55:00,65.8,31.0,30.11,SSW,204,10.0,-999.0,27,-99.99,,,0.00,weatherlink.com 1.10,2013-11-08 18:55:00,
2013-11-08 13:10:00,65.8,30.0,30.11,SSW,200,15.0,-999.0,26,-99.99,,,0.00,weatherlink.com 1.10,2013-11-08 19:10:00,
2013-11-08 13:25:00,66.6,31.0,30.10,SSW,202,12.0,-999.0,26,-99.99,,,0.00,weatherlink.com 1.10,2013-11-08 19:25:00,
2013-11-08 13:40:00,66.9,31.0,30.09,SSE,164,16.0,-999.0,26,-99.99,,,0.00,weatherlink.com 1.10,2013-11-08 19:40:00,
2013-11-08 13:55:00,66.6,30.0,30.08,SSE,158,15.0,-999.0,25,-99.99,,,0.00,weatherlink.com 1.10,2013-11-08 19:55:00,
2013-11-08 14:10:00,66.8,30.0,30.07,SSW,213,19.0,-999.0,25,-99.99,,,0.00,weatherlink.com 1.10,2013-11-08 20:10:00,
2013-11-08 14:25:00,66.3,30.0,30.07,SSW,195,20.0,-999.0,26,-99.99,,,0.00,weatherlink.com 1.10,2013-11-08 20:25:00,
2013-11-08 14:40:00,66.4,30.0,30.07,South,183,6.0,-999.0,26,-99.99,,,0.00,weatherlink.com 1.10,2013-11-08 20:40:00,
2013-11-08 14:55:00,66.8,32.0,30.06,South,175,12.0,-999.0,27,-99.99,,,0.00,weatherlink.com 1.10,2013-11-08 20:55:00,
2013-11-08 15:10:00,66.4,31.0,30.05,SSW,200,9.0,-999.0,27,-99.99,,,0.00,weatherlink.com 1.10,2013-11-08 21:10:00,
2013-11-08 15:25:00,66.6,32.0,30.05,SSE,167,12.0,-999.0,28,-99.99,,,0.00,weatherlink.com 1.10,2013-11-08 21:25:00,
2013-11-08 15:40:00,66.6,31.0,30.05,South,173,14.0,-999.0,27,-99.99,,,0.00,weatherlink.com 1.10,2013-11-08 21:40:00,
2013-11-08 15:55:00,65.8,32.0,30.04,SSW,192,6.0,-999.0,28,-99.99,,,0.00,weatherlink.com 1.10,2013-11-08 21:55:00,
2013-11-08 16:10:00,65.0,31.0,30.04,SSW,194,19.0,-999.0,28,-99.99,,,0.00,weatherlink.com 1.10,2013-11-08 22:10:00,
2013-11-08 16:25:00,64.5,31.0,30.04,South,171,14.0,-999.0,29,-99.99,,,0.00,weatherlink.com 1.10,2013-11-08 22:25:00,
2013-11-08 16:40:00,64.2,33.0,30.03,South,175,14.0,-999.0,31,-99.99,,,0.00,weatherlink.com 1.10,2013-11-08 22:40:00,
2013-11-08 16:55:00,63.4,34.0,30.04,South,190,15.0,-999.0,33,-99.99,,,0.00,weatherlink.com 1.10,2013-11-08 22:55:00,
2013-11-08 17:10:00,62.7,34.0,30.03,SSE,165,8.0,-999.0,34,-99.99,,,0.00,weatherlink.com 1.10,2013-11-08 23:10:00,
2013-11-08 17:25:00,62.1,35.0,30.02,South,190,15.0,-999.0,36,-99.99,,,0.00,weatherlink.com 1.10,2013-11-08 23:25:00,
2013-11-08 17:40:00,61.6,36.0,30.02,South,182,16.0,-999.0,38,-99.99,,,0.00,weatherlink.com 1.10,2013-11-08 23:40:00,
2013-11-08 17:55:00,61.0,35.0,30.01,South,186,14.0,-999.0,38,-99.99,,,0.00,weatherlink.com 1.10,2013-11-08 23:55:00,
2013-11-08 18:10:00,60.5,36.0,30.02,South,179,11.0,-999.0,40,-99.99,,,0.00,weatherlink.com 1.10,2013-11-09 00:10:00,
2013-11-08 18:25:00,59.9,37.0,30.02,South,178,15.0,-999.0,42,-99.99,,,0.00,weatherlink.com 1.10,2013-11-09 00:25:00,
2013-11-08 18:40:00,59.3,37.0,30.02,SSW,199,23.0,-999.0,44,-99.99,,,0.00,weatherlink.com 1.10,2013-11-09 00:40:00,
2013-11-08 18:55:00,58.7,38.0,30.03,SSW,194,5.0,-999.0,46,-99.99,,,0.00,weatherlink.com 1.10,2013-11-09 00:55:00,
2013-11-08 19:10:00,58.1,38.0,30.03,South,175,11.0,-999.0,48,-99.99,,,0.00,weatherlink.com 1.10,2013-11-09 01:10:00,
2013-11-08 19:25:00,58.0,39.0,30.03,South,182,6.0,-999.0,49,-99.99,,,0.00,weatherlink.com 1.10,2013-11-09 01:25:00,
2013-11-08 19:40:00,57.8,39.0,30.02,South,182,9.0,-999.0,49,-99.99,,,0.00,weatherlink.com 1.10,2013-11-09 01:40:00,
2013-11-08 19:55:00,57.5,39.0,30.02,South,191,6.0,-999.0,50,-99.99,,,0.00,weatherlink.com 1.10,2013-11-09 01:55:00,
2013-11-08 20:10:00,57.2,39.0,30.03,South,182,6.0,-999.0,51,-99.99,,,0.00,weatherlink.com 1.10,2013-11-09 02:10:00,
2013-11-08 20:25:00,57.3,37.0,30.02,South,183,12.0,-999.0,47,-99.99,,,0.00,weatherlink.com 1.10,2013-11-09 02:25:00,
2013-11-08 20:40:00,57.5,38.0,30.02,SSW,198,11.0,-999.0,49,-99.99,,,0.00,weatherlink.com 1.10,2013-11-09 02:40:00,
2013-11-08 20:55:00,57.2,38.0,30.03,SSW,211,15.0,-999.0,49,-99.99,,,0.00,weatherlink.com 1.10,2013-11-09 02:55:00,
2013-11-08 21:10:00,57.0,38.0,30.04,SSW,199,10.0,-999.0,49,-99.99,,,0.00,weatherlink.com 1.10,2013-11-09 03:10:00,
2013-11-08 21:25:00,56.7,38.0,30.03,SSW,206,11.0,-999.0,49,-99.99,,,0.00,weatherlink.com 1.10,2013-11-09 03:25:00,
2013-11-08 21:40:00,56.5,37.0,30.04,SSE,167,11.0,-999.0,49,-99.99,,,0.00,weatherlink.com 1.10,2013-11-09 03:40:00,
2013-11-08 21:55:00,56.3,37.0,30.05,SSW,193,11.0,-999.0,49,-99.99,,,0.00,weatherlink.com 1.10,2013-11-09 03:55:00,
2013-11-08 22:10:00,56.2,37.0,30.06,SSW,201,6.0,-999.0,49,-99.99,,,0.00,weatherlink.com 1.10,2013-11-09 04:10:00,
2013-11-08 22:25:00,55.9,37.0,30.06,South,184,0.0,-999.0,50,-99.99,,,0.00,weatherlink.com 1.10,2013-11-09 04:25:00,
2013-11-08 22:40:00,55.1,38.0,30.06,South,190,4.0,-999.0,52,-99.99,,,0.00,weatherlink.com 1.10,2013-11-09 04:40:00,
2013-11-08 22:55:00,54.5,38.0,30.06,South,187,6.0,-999.0,54,-99.99,,,0.00,weatherlink.com 1.10,2013-11-09 04:55:00,
2013-11-08 23:10:00,54.1,39.0,30.05,South,189,6.0,-999.0,56,-99.99,,,0.00,weatherlink.com 1.10,2013-11-09 05:10:00,
2013-11-08 23:25:00,53.8,39.0,30.05,South,189,2.0,-999.0,57,-99.99,,,0.00,weatherlink.com 1.10,2013-11-09 05:25:00,
2013-11-08 23:40:00,53.5,39.0,30.05,South,182,6.0,-999.0,58,-99.99,,,0.00,weatherlink.com 1.10,2013-11-09 05:40:00,
2013-11-08 23:55:00,53.5,39.0,30.05,South,178,2.0,-999.0,58,-99.99,,,0.00,weatherlink.com 1.10,2013-11-09 05:55:00,